This is the latest recevied weather packets stored in our database for station/object KC0UFP. If no packets are shown the sender has not sent any weather packets the latest 10 day(s).
| Time | Temp. | Humidity | Pressure | Rain* | Wind** | Luminosity | Snow |
|---|---|---|---|---|---|---|---|
| 1777483430 | 18.33° C | 74% | 1016 hPa | 0 mm | - | 546 W/m² | - |
| 1777483125 | 17.78° C | 77% | 1016.2 hPa | 0 mm | - | 1077 W/m² | - |
| 1777482518 | 17.78° C | 79% | 1016.2 hPa | 0 mm | - | 945 W/m² | - |
| 1777482216 | 18.33° C | 75% | 1016.4 hPa | 0 mm | - | 459 W/m² | - |
| 1777481913 | 17.78° C | 76% | 1016.5 hPa | 0 mm | - | 519 W/m² | - |
| 1777481611 | 18.33° C | 77% | 1016.5 hPa | 0 mm | - | 669 W/m² | - |
| 1777481004 | 17.22° C | 77% | 1016.5 hPa | 0 mm | - | 1045 W/m² | - |
| 1777480700 | 17.22° C | 77% | 1016.7 hPa | 0 mm | - | 729 W/m² | - |
| 1777480397 | 17.22° C | 77% | 1016.6 hPa | 0 mm | - | 319 W/m² | - |
| 1777480093 | 17.22° C | 80% | 1016.4 hPa | 0 mm | - | 293 W/m² | - |
| 1777479487 | 17.22° C | 79% | 1016.7 hPa | 0 mm | - | 314 W/m² | - |
| 1777479184 | 17.22° C | 79% | 1016.7 hPa | 0 mm | - | 436 W/m² | - |
| 1777478881 | 17.22° C | 79% | 1016.9 hPa | 0 mm | - | 476 W/m² | - |
| 1777478274 | 17.22° C | 82% | 1016.4 hPa | 0 mm | - | 1079 W/m² | - |
| 1777477970 | 16.67° C | 83% | 1016.6 hPa | 0 mm | - | 936 W/m² | - |
| 1777476757 | 15.56° C | 86% | 1016.5 hPa | 0 mm | - | 184 W/m² | - |
| 1777476453 | 15.56° C | 87% | 1016.2 hPa | 0 mm | - | 209 W/m² | - |
| 1777474327 | 15.56° C | 89% | 1016.2 hPa | 0 mm | - | 207 W/m² | - |
| 1777473113 | 15.56° C | 89% | 1016.1 hPa | 0 mm | - | 119 W/m² | - |
| 1777471899 | 15.56° C | 91% | 1015.9 hPa | 0 mm | - | 230 W/m² | - |
| 1777470382 | 15° C | 93% | 1015.2 hPa | 0 mm | - | 87 W/m² | - |
| 1777468259 | 15.56° C | 93% | 1015 hPa | 0 mm | - | 64 W/m² | - |
| 1777467043 | 15.56° C | 95% | 1014.6 hPa | 0 mm | - | 64 W/m² | - |
| 1777465830 | 15.56° C | 94% | 1014 hPa | 0 mm | - | 43 W/m² | - |
| 1777464611 | 16.11° C | 95% | 1013.5 hPa | 0 mm | - | 29 W/m² | - |
* Rain latest hour (hover to see other rain measurements)
** Current wind speed in m/s (hover to see current wind gust speed)